Domov               UVHVVR             MKGP            O straneh              
ZDRAVSTVENO VARSTVO RASTLIN
  MREŽA AGROMET. POSTAJ
 ► PROGNOSTIČNA OBVESTILA
AGROMETEOROLOŠKI PODATKI -
ARSO
OBVLADOVANJE TVEGANJ ZARADI
NEUGODNIH VREMENSKIH RAZMER
  ► NARAVNE NESREČE
  ► SUŠA/MOČA
  ► NAMAKANJE
  ► ŽLED (gozdarstvo)
KARTOGRAFSKI PRIKAZI
SPLETNE POVEZAVE
PROJEKTI IN PUBLIKACIJE

AGROMETEOROLOŠKA MREŽA: VREMENSKE POSTAJE IN FENOLOŠKA OPAZOVANJA

Pregled podatkov za lokacijo Drašiči, meteorološka postaja 38741

Pregled senzorjev na lokaciji

ID Ime Zadnja
vrednost
Datum
zadnje
spremembe
Tip
senzorja
1867 Omočenost lista (U) 0 U 23.7.2018 05:00 A730WET
1868 Padavine (mm) 0 mm 23.7.2018 05:00 Rain-O-Matic
1866 Relativna vlaga 2 m (% RH) 88,23 % RH 23.7.2018 05:00 50YA
1865 Temperatura 2 m (°C) 18,02 °C 23.7.2018 05:00 50YA

Pregled podatkov zadnjih 24 ur

Zap.
št.
Datum in čas Drašiči
Omočenost
lista
Padavine Relativna
vlaga
2
m
Temperatura
2
m
1 23.7.2018 05:30
2 23.7.2018 05:00
3 23.7.2018 04:30
4 23.7.2018 04:00 0 0 88,2 18
5 23.7.2018 03:30 0 0 89,1 18,1
6 23.7.2018 03:00 0 0 89,1 18,3
7 23.7.2018 02:30 0 0 88,6 18,4
8 23.7.2018 02:00 0 0 87,8 18,6
9 23.7.2018 01:30 0 0 87,9 18,6
10 23.7.2018 01:00 0 0 89,2 18,6
11 23.7.2018 00:30 0 0 88,6 18,6
12 23.7.2018 00:00 0 0 88,7 18,9
13 22.7.2018 23:30 0 0 87,9 19,2
14 22.7.2018 23:00 0 0 87,2 19,3
15 22.7.2018 22:30 0 0 88,5 19,3
16 22.7.2018 22:00 0 0 86,6 19,4
17 22.7.2018 21:30 0 0 87,4 19,4
18 22.7.2018 21:00 0 0 89,1 19,5
19 22.7.2018 20:30 0 0 84,9 20,4
20 22.7.2018 20:00 0 0 81,5 21,1
21 22.7.2018 19:30 0 0 81,9 21,6
22 22.7.2018 19:00 0 0 79,5 22,3
23 22.7.2018 18:30 0 0 74,5 23,5
24 22.7.2018 18:00 0 0 69,4 24,3
25 22.7.2018 17:30 0 0 67,7 24,7
26 22.7.2018 17:00 0 0 65,9 24,8
27 22.7.2018 16:30 0 0 66,2 24,4
28 22.7.2018 16:00 0 0 65,6 25,5
29 22.7.2018 15:30 0 0 76,2 23,3
30 22.7.2018 15:00 0 0 76,1 23,3
31 22.7.2018 14:30 0 0 78,4 22,4
32 22.7.2018 14:00 1 0 79,3 21,6
33 22.7.2018 13:30 0 0 76,9 21,5
34 22.7.2018 13:00 0 0 73,1 21,5
35 22.7.2018 12:30 0 0 68,4 22,2
36 22.7.2018 12:00 0 0 68,9 24,4
37 22.7.2018 11:30 0 0 63,8 25,6
38 22.7.2018 11:00 0 0 59,2 27,5
39 22.7.2018 10:30 0 0 61,6 26,7
40 22.7.2018 10:00 0 0 63,4 26,2
41 22.7.2018 09:30 0 0 67,1 24,7
42 22.7.2018 09:00 0 0 66,2 25,4
43 22.7.2018 08:30 0 0 67,7 24,4
44 22.7.2018 08:00 0 0 73,9 22,7
45 22.7.2018 07:30 0 0 77,4 21,3
46 22.7.2018 07:00 0 0 79,5 20,4
47 22.7.2018 06:30 0 0 84,8 18,8
48 22.7.2018 06:00 0 0 88,4 17,7
© 2011 Ministrstvo za kmetijstvo, gozdarstvo in prehrano. Vse pravice pridržane.